Retour au catalogue

STARLINK-3621

ActifCommunicationsVLEO
NORAD 51769·PAYLOAD·🇺🇸 United States

Lancé Feb 25, 2022 depuis Vandenberg Space Force Base

Loading…

Prochains Passages (prochaines 24 heures)

TLE

FraisSource: CelesTrak SupGP

Époque: Sep 14, 2026, 20:52 UTC

1 51769C 22017B   26257.86993056  .00019770  00000+0  11721-2 0  2572
2 51769  53.2154 208.6792 0001599  79.2474 214.9781 15.10866410    16

Suivez STARLINK-3621 en temps réel avec AllMySat

Download on the App Store